Location: S�tio Afonso Gruber
(26.1760°S, 49.5250°W)
Time: 14:53:10
(UTC+00:00)

NOSS 3-1 (A) - Pass Details

Date: 07 June 2020
Orbit: 755 x 1458 km, 63.4° (Epoch: 16 June)

Event Time Altitude Azimuth Distance (km) Brightness Sun altitude
Rises 08:52:31 0° 318° (NW) 4,547 6.7 -15.0°
Reaches altitude 10° 08:55:39 10° 312° (NW) 3,570 6.1 -14.4°
Maximum altitude 09:04:12 49° 239° (WSW) 1,744 4.4 -12.6°
Drops below altitude 10° 09:12:07 10° 166° (SSE) 3,296 6.2 -10.9°
Sets 09:14:55 0° 160° (SSE) 4,177 6.8 -10.3°
